Weather History for Plant City, FL

Change the Weather History Date:

Saturday, December 29, 2012

  Actual Average Record
Temperature  
Mean Temperature 66 °F -  
Max Temperature 77 °F 74 °F 89 °F (1981)
Min Temperature 53 °F 51 °F 26 °F (2010)
Cooling Degree Days 1    
Growing Degree Days 16 (Base 50)    
Moisture  
Dew Point 54 °F    
Average Humidity 73    
Maximum Humidity 88    
Minimum Humidity 56    
Precipitation  
Precipitation 0.13 in - - ()
Sea Level Pressure  
Sea Level Pressure 30.01 in    
Wind  
Wind Speed 10 mph (WSW)    
Max Wind Speed 21 mph    
Max Gust Speed 28 mph    
Visibility 8 miles    
Events Rain    
Averages and records for this station are not official NWS values.
T = Trace of Precipitation, MM = Missing Value Source: NWS Daily Summary

Daily Weather History Graph

Daily Weather History Graph

Search for Another Location

Airport:

Trip Planner

Search our weather history database for the weather conditions in past years. The results will help you decide how hot, cold, wet, or windy it might be!

Date:

Astronomy

Dec. 29, 2012 Rise Set
Actual Time 7:19 AM EST 5:42 PM EST
Civil Twilight 6:53 AM EST 6:08 PM EST
Nautical Twilight 6:24 AM EST 6:37 PM EST
Astronomical Twilight 5:55 AM EST 7:06 PM EST
Moon 7:05 PM EST (12/29) 7:59 AM EST (12/29)
Length of Visible Light 11h 14m
Length of Day
10h 23m
Full, 98% of the Moon is Illuminated
Dec 29
Full
Jan 4
Last Quarter
Jan 11
New
Jan 18
First Quarter
Jan 26
Full

Hourly Weather History & Observations

Time (EST) Temp. Dew Point Humidity Pressure Visibility Wind Dir Wind Speed Gust Speed Precip Events Conditions
12:15 AM 68.0 °F - N/A% 29.96 in 3.0 mi SSE 5.8 mph - 0.01 in   Overcast
12:35 AM 68.0 °F - N/A% 29.94 in 3.0 mi SSE 6.9 mph - 0.01 in   Overcast
12:55 AM 68.0 °F - N/A% 29.93 in 5.0 mi SSE 9.2 mph - 0.02 in   Haze
1:15 AM 69.8 °F - N/A% 29.92 in 7.0 mi South 8.1 mph - 0.01 in   Overcast
1:35 AM 69.8 °F - N/A% 29.92 in 7.0 mi South 10.4 mph - 0.02 in   Overcast
1:55 AM 69.8 °F - N/A% 29.92 in 7.0 mi South 10.4 mph 16.1 mph 0.02 in   Overcast
2:15 AM 69.8 °F - N/A% 29.91 in 7.0 mi South 12.7 mph - 0.01 in   Overcast
2:35 AM 71.6 °F - N/A% 29.92 in 7.0 mi South 9.2 mph - 0.01 in   Overcast
2:55 AM 71.6 °F - N/A% 29.91 in 7.0 mi South 8.1 mph - 0.02 in   Overcast
3:15 AM 71.6 °F - N/A% 29.91 in 10.0 mi South 10.4 mph - N/A   Overcast
3:35 AM 71.6 °F - N/A% 29.91 in 10.0 mi South 8.1 mph 16.1 mph 0.01 in   Overcast
3:55 AM 71.6 °F - N/A% 29.91 in 10.0 mi South 11.5 mph 16.1 mph 0.01 in   Overcast
4:15 AM 71.6 °F - N/A% 29.91 in 10.0 mi South 12.7 mph 19.6 mph N/A   Overcast
4:35 AM 71.6 °F - N/A% 29.91 in 7.0 mi SSW 11.5 mph 18.4 mph 0.01 in   Overcast
4:55 AM 71.6 °F - N/A% 29.91 in 7.0 mi South 16.1 mph 21.9 mph 0.01 in   Overcast
5:15 AM 71.6 °F - N/A% 29.92 in 7.0 mi SSW 15.0 mph 20.7 mph N/A   Overcast
5:35 AM 73.4 °F - N/A% 29.93 in 7.0 mi South 12.7 mph 19.6 mph N/A   Overcast
5:55 AM 73.4 °F - N/A% 29.94 in 7.0 mi SSW 11.5 mph - N/A   Overcast
6:15 AM 73.4 °F - N/A% 29.95 in 7.0 mi SSW 11.5 mph - N/A Rain Light Rain
6:35 AM 73.4 °F - N/A% 29.95 in 7.0 mi SSW 8.1 mph - N/A   Overcast
6:55 AM 73.4 °F - N/A% 29.96 in 7.0 mi SSW 10.4 mph - N/A   Overcast
7:15 AM 73.4 °F - N/A% 29.96 in 7.0 mi SSW 6.9 mph - N/A Rain Light Rain
7:35 AM 73.4 °F - N/A% 29.96 in 7.0 mi SSW 10.4 mph - N/A   Overcast
7:55 AM 73.4 °F - N/A% 29.98 in 10.0 mi SW 11.5 mph 16.1 mph N/A   Overcast
8:15 AM 73.4 °F - N/A% 29.98 in 5.0 mi SSW 12.7 mph 17.3 mph N/A Rain Rain
8:35 AM 73.4 °F - N/A% 29.98 in 5.0 mi SW 11.5 mph 17.3 mph 0.01 in Rain Light Rain
8:55 AM 75.2 °F - N/A% 29.98 in 7.0 mi SSW 10.4 mph 16.1 mph 0.01 in   Overcast
9:15 AM 75.2 °F - N/A% 30.00 in 5.0 mi SW 20.7 mph 27.6 mph 0.01 in Rain Light Rain
9:35 AM 75.2 °F - N/A% 30.01 in 10.0 mi SW 13.8 mph 18.4 mph 0.01 in   Overcast
9:55 AM 75.2 °F - N/A% 30.01 in 7.0 mi WSW 13.8 mph 20.7 mph 0.02 in   Overcast
10:15 AM 73.4 °F - N/A% 30.01 in 10.0 mi WSW 11.5 mph 17.3 mph N/A   Overcast
10:35 AM 73.4 °F - N/A% 30.02 in 5.0 mi West 12.7 mph 20.7 mph 0.01 in   Haze
10:55 AM 73.4 °F - N/A% 30.01 in 5.0 mi West 11.5 mph 17.3 mph 0.01 in   Haze
11:15 AM 73.4 °F - N/A% 30.01 in 7.0 mi West 10.4 mph 17.3 mph N/A   Overcast
11:35 AM 73.4 °F - N/A% 30.00 in 7.0 mi West 11.5 mph - 0.01 in   Overcast
11:55 AM 73.4 °F - N/A% 30.00 in 7.0 mi West 12.7 mph - 0.01 in   Overcast
12:15 PM 75.2 °F 66.2 °F 73% 29.99 in 7.0 mi West 11.5 mph 19.6 mph N/A   Overcast
12:35 PM 75.2 °F 66.2 °F 73% 29.99 in 10.0 mi West 13.8 mph 20.7 mph N/A   Overcast
12:55 PM 77.0 °F 62.6 °F 61% 29.98 in 10.0 mi West 13.8 mph 20.7 mph N/A   Overcast
1:15 PM 77.0 °F 64.4 °F 65% 29.97 in 10.0 mi WNW 11.5 mph 17.3 mph N/A   Mostly Cloudy
1:55 PM 73.4 °F 62.6 °F 69% 29.97 in 10.0 mi WNW 13.8 mph - N/A   Mostly Cloudy
2:15 PM 75.2 °F 60.8 °F 61% 29.98 in 10.0 mi WNW 16.1 mph 23.0 mph N/A   Scattered Clouds
2:35 PM 71.6 °F 60.8 °F 69% 29.98 in 10.0 mi WNW 15.0 mph 21.9 mph N/A   Scattered Clouds
2:55 PM 71.6 °F 60.8 °F 69% 29.98 in 10.0 mi West 16.1 mph 24.2 mph N/A   Scattered Clouds
3:15 PM 69.8 °F 59.0 °F 68% 29.99 in 10.0 mi WNW 12.7 mph - N/A   Scattered Clouds
3:35 PM 69.8 °F 59.0 °F 68% 29.99 in 10.0 mi NW 13.8 mph 21.9 mph N/A   Scattered Clouds
3:55 PM 69.8 °F 57.2 °F 64% 30.00 in 10.0 mi NW 16.1 mph 21.9 mph N/A   Clear
4:15 PM 69.8 °F 55.4 °F 60% 30.00 in 10.0 mi WNW 12.7 mph 18.4 mph N/A   Clear
4:35 PM 68.0 °F 51.8 °F 56% 30.01 in 10.0 mi West 11.5 mph 17.3 mph N/A   Clear
4:55 PM 66.2 °F 50.0 °F 56% 30.02 in 10.0 mi WNW 6.9 mph - N/A   Clear
5:15 PM 64.4 °F 50.0 °F 59% 30.03 in 10.0 mi WNW 10.4 mph - N/A   Clear
5:35 PM 62.6 °F 51.8 °F 68% 30.04 in 10.0 mi WNW 9.2 mph 17.3 mph N/A   Clear
6:15 PM 60.8 °F 53.6 °F 77% 30.06 in 10.0 mi WNW 13.8 mph 18.4 mph N/A   Clear
6:35 PM 60.8 °F 51.8 °F 72% 30.07 in 10.0 mi WNW 5.8 mph - N/A   Clear
6:55 PM 59.0 °F 51.8 °F 77% 30.08 in 10.0 mi NW 12.7 mph 19.6 mph N/A   Clear
7:15 PM 59.0 °F 51.8 °F 77% 30.09 in 10.0 mi NW 10.4 mph 17.3 mph N/A   Clear
7:35 PM 59.0 °F 51.8 °F 77% 30.10 in 10.0 mi WNW 8.1 mph - N/A   Clear
7:55 PM 57.2 °F 51.8 °F 82% 30.11 in 10.0 mi WNW 6.9 mph - N/A   Clear
8:15 PM 57.2 °F 51.8 °F 82% 30.12 in 10.0 mi WNW 6.9 mph - N/A   Clear
8:35 PM 57.2 °F 51.8 °F 82% 30.13 in 10.0 mi NW 8.1 mph - N/A   Clear
8:55 PM 57.2 °F 51.8 °F 82% 30.14 in 10.0 mi NW 6.9 mph - N/A   Clear
9:15 PM 55.4 °F 51.8 °F 88% 30.15 in 10.0 mi WNW 5.8 mph - N/A   Clear
9:35 PM 55.4 °F 50.0 °F 82% 30.16 in 10.0 mi WNW 6.9 mph - N/A   Clear
9:55 PM 55.4 °F 50.0 °F 82% 30.16 in 10.0 mi WNW 4.6 mph - N/A   Clear
10:15 PM 55.4 °F 50.0 °F 82% 30.17 in 10.0 mi WNW 5.8 mph - N/A   Clear
10:35 PM 55.4 °F 50.0 °F 82% 30.17 in 10.0 mi WNW 5.8 mph - N/A   Clear
10:55 PM 55.4 °F 50.0 °F 82% 30.18 in 10.0 mi NW 8.1 mph - N/A   Clear
11:15 PM 55.4 °F 48.2 °F 77% 30.18 in 10.0 mi NW 10.4 mph 16.1 mph N/A   Clear
11:35 PM 55.4 °F 48.2 °F 77% 30.18 in 10.0 mi NW 12.7 mph 18.4 mph N/A   Clear
11:55 PM 53.6 °F 46.4 °F 77% 30.19 in 10.0 mi NNW 9.2 mph - N/A   Clear